sat.trackr.live / text

‹ back to catalog

ALSAT-3B

NORAD 67646 · 2026-021A

PAYLOAD ACTIVE UNKNOWN

§ Identity

Operator
Country
ALG
Launch date
2026-01-31
Launch site
JSC
Launch vehicle
Mass (kg)
RCS (m²)

External: N2YO · Heavens-Above · Gunter

§ Orbital elements

Epoch: 2026-09-20T22:15:10.194048Z

Period
94.51 min
Inclination
97.4510°
Eccentricity
0.0012268
Mean motion
15.23665241 rev/d
Perigee alt
486.4 km
Apogee alt
503.2 km
Semi-major
6,872.9 km
B*
1.4349e-4
RAAN
337.0589°
Arg perigee
182.5396°
Mean anomaly
177.5781°
Rev number
3,544

§ Raw data

ALSAT-3B1 67646U 26021A   26263.92720132  .00003375  00000+0  14349-3 0  99962 67646  97.4510 337.0589 0012268 182.5396 177.5781 15.23665241 35442

JSON: /api/v1/satellites/67646 · /tle

For live sub-satellite position, see the globe view (requires WebGL).

§ Visibility from observer

Set your observer location to see the next 7 days of passes ≥ 10°. The values pass through the URL so the page stays shareable.

No JS? Fill the form by hand. The geolocation button needs JavaScript.

§ Radio — SatNOGS DB

ModeDescriptionDownlinkUplink
FM S-band telemetry 2.254 GHz

1 transmitter · refreshed weekly from db.satnogs.org